Location: Finkenbach
(49.5340°N, 8.9188°E)
Time: 20:31:19
(UTC+00:00)

Spot 1 - Pass Details

Date: 17 June 2025
Orbit: 569 x 752 km, 98.7° (Epoch: 16 July)

Event Time Altitude Azimuth Distance (km) Brightness Sun altitude
Rises 23:11:19 0° 14° (NNE) 3,163 9.1 -17.0°
Reaches altitude 10° 23:13:35 10° 14° (NNE) 2,254 8.1 -17.0°
Maximum altitude 23:18:35 88° 286° (WNW) 757 4.4 -17.0°
Enters shadow 23:21:17 28° 198° (SSW) 1,381 5.3 -17.1°
